TimeCST,TemperatureF,Dew PointF,Humidity,Sea Level PressureIn,VisibilityMPH,Wind Direction,Wind SpeedMPH,Gust SpeedMPH,PrecipitationIn,Events,Conditions,WindDirDegrees,DateUTC
12:12 AM,43.0,28.4,56,29.92,10.0,West,8.1,-,N/A,,Clear,270,2012-12-04 06:12:00
12:32 AM,43.2,28.2,56,29.92,10.0,West,10.4,16.1,N/A,,Clear,270,2012-12-04 06:32:00
12:52 AM,43.7,27.9,54,29.92,10.0,West,11.5,16.1,N/A,,Clear,280,2012-12-04 06:52:00
1:12 AM,45.3,27.5,50,29.92,10.0,WNW,18.4,31.1,N/A,,Clear,290,2012-12-04 07:12:00
1:32 AM,45.0,27.3,50,29.92,10.0,West,15.0,20.7,N/A,,Clear,270,2012-12-04 07:32:00
1:52 AM,44.6,27.3,51,29.93,10.0,West,10.4,19.6,N/A,,Clear,280,2012-12-04 07:52:00
2:12 AM,43.7,27.3,53,29.95,10.0,West,12.7,18.4,N/A,,Clear,280,2012-12-04 08:12:00
2:52 AM,42.3,27.1,55,29.96,10.0,West,6.9,-,N/A,,Clear,280,2012-12-04 08:52:00
3:12 AM,41.9,27.0,55,29.96,10.0,WNW,8.1,-,N/A,,Clear,290,2012-12-04 09:12:00
3:32 AM,39.9,27.3,61,29.97,10.0,West,6.9,-,N/A,,Clear,280,2012-12-04 09:32:00
3:52 AM,39.6,26.8,60,29.97,10.0,West,4.6,-,N/A,,Clear,280,2012-12-04 09:52:00
4:12 AM,39.6,26.6,60,29.97,10.0,WNW,6.9,-,N/A,,Clear,290,2012-12-04 10:12:00
4:32 AM,38.8,26.6,61,29.98,10.0,West,6.9,-,N/A,,Clear,280,2012-12-04 10:32:00
4:52 AM,38.5,26.1,61,29.99,10.0,WNW,8.1,-,N/A,,Clear,290,2012-12-04 10:52:00
5:12 AM,37.8,25.7,62,30.00,10.0,WNW,16.1,19.6,N/A,,Clear,300,2012-12-04 11:12:00
5:32 AM,36.7,25.7,64,30.01,10.0,WNW,9.2,-,N/A,,Clear,300,2012-12-04 11:32:00
5:52 AM,36.0,25.2,65,30.02,10.0,West,12.7,17.3,N/A,,Clear,280,2012-12-04 11:52:00
6:12 AM,35.6,25.3,66,30.04,10.0,WNW,11.5,17.3,N/A,,Clear,290,2012-12-04 12:12:00
6:32 AM,34.7,23.4,63,30.04,10.0,West,12.7,18.4,N/A,,Clear,280,2012-12-04 12:32:00
6:52 AM,34.0,21.2,60,30.06,10.0,WNW,9.2,-,N/A,,Clear,300,2012-12-04 12:52:00
7:12 AM,33.3,21.9,63,30.06,10.0,WNW,5.8,-,N/A,,Clear,290,2012-12-04 13:12:00
7:32 AM,32.7,21.4,63,30.07,10.0,WNW,9.2,-,N/A,,Clear,300,2012-12-04 13:32:00
7:52 AM,32.0,20.3,62,30.09,10.0,WNW,5.8,-,N/A,,Clear,300,2012-12-04 13:52:00
8:12 AM,32.4,19.4,59,30.10,10.0,NW,6.9,-,N/A,,Clear,310,2012-12-04 14:12:00
8:32 AM,32.0,18.1,57,30.10,10.0,WNW,6.9,-,N/A,,Clear,300,2012-12-04 14:32:00
8:52 AM,32.2,18.0,56,30.12,10.0,WNW,9.2,-,N/A,,Clear,290,2012-12-04 14:52:00
9:12 AM,32.4,17.8,55,30.13,10.0,NW,12.7,17.3,N/A,,Clear,310,2012-12-04 15:12:00
9:32 AM,32.4,17.6,55,30.15,10.0,NW,13.8,-,N/A,,Clear,320,2012-12-04 15:32:00
9:52 AM,32.2,17.8,55,30.16,10.0,NW,12.7,18.4,N/A,,Clear,310,2012-12-04 15:52:00
10:12 AM,32.7,18.0,55,30.16,10.0,NW,13.8,18.4,N/A,,Clear,320,2012-12-04 16:12:00
10:32 AM,32.7,18.0,55,30.17,10.0,NW,10.4,-,N/A,,Clear,320,2012-12-04 16:32:00
10:52 AM,33.3,18.0,53,30.17,10.0,WNW,13.8,-,N/A,,Clear,300,2012-12-04 16:52:00
11:12 AM,33.4,18.0,53,30.17,10.0,NW,13.8,20.7,N/A,,Clear,310,2012-12-04 17:12:00
11:32 AM,33.3,18.1,54,30.17,10.0,NW,11.5,-,N/A,,Clear,320,2012-12-04 17:32:00
12:12 PM,34.0,18.5,53,30.17,10.0,WNW,11.5,-,N/A,,Clear,300,2012-12-04 18:12:00
12:32 PM,34.5,18.7,52,30.18,10.0,NW,11.5,19.6,N/A,,Clear,320,2012-12-04 18:32:00
12:52 PM,34.3,18.1,52,30.18,10.0,NNW,13.8,19.6,N/A,,Clear,330,2012-12-04 18:52:00
1:12 PM,34.0,17.2,50,30.19,10.0,NW,12.7,-,N/A,,Clear,320,2012-12-04 19:12:00
1:32 PM,34.0,17.2,50,30.19,10.0,NW,12.7,17.3,N/A,,Clear,320,2012-12-04 19:32:00
1:52 PM,34.5,17.4,50,30.20,10.0,NW,11.5,-,N/A,,Clear,320,2012-12-04 19:52:00
2:12 PM,34.2,16.5,49,30.21,10.0,NW,12.7,-,N/A,,Clear,320,2012-12-04 20:12:00
2:32 PM,33.4,14.9,47,30.22,10.0,NNW,13.8,18.4,N/A,,Clear,330,2012-12-04 20:32:00
2:52 PM,33.1,14.4,46,30.22,10.0,NNW,9.2,-,N/A,,Clear,330,2012-12-04 20:52:00
3:12 PM,32.4,13.3,45,30.24,10.0,NW,11.5,-,N/A,,Clear,310,2012-12-04 21:12:00
3:32 PM,32.0,13.1,46,30.24,10.0,NNW,10.4,-,N/A,,Clear,330,2012-12-04 21:32:00
3:52 PM,32.0,13.3,46,30.25,10.0,NW,11.5,-,N/A,,Clear,310,2012-12-04 21:52:00
4:12 PM,31.1,12.7,47,30.26,10.0,NNW,8.1,-,N/A,,Clear,330,2012-12-04 22:12:00
4:52 PM,30.0,13.1,49,30.28,10.0,WNW,6.9,-,N/A,,Clear,300,2012-12-04 22:52:00
5:12 PM,29.8,11.8,47,30.29,10.0,NW,9.2,-,N/A,,Clear,320,2012-12-04 23:12:00
5:32 PM,29.5,11.7,48,30.29,10.0,NNW,6.9,-,N/A,,Clear,330,2012-12-04 23:32:00
5:52 PM,28.6,11.7,49,30.30,10.0,NNW,3.5,-,N/A,,Clear,340,2012-12-04 23:52:00
6:12 PM,28.8,12.0,50,30.30,10.0,NNW,6.9,-,N/A,,Clear,340,2012-12-05 00:12:00
6:32 PM,28.4,11.5,49,30.31,10.0,NNW,6.9,-,N/A,,Clear,330,2012-12-05 00:32:00
6:52 PM,27.5,11.7,51,30.31,10.0,North,4.6,-,N/A,,Clear,360,2012-12-05 00:52:00
7:12 PM,27.5,12.0,52,30.32,10.0,North,6.9,-,N/A,,Clear,350,2012-12-05 01:12:00
7:32 PM,27.5,12.0,52,30.32,10.0,North,6.9,-,N/A,,Clear,350,2012-12-05 01:32:00
7:52 PM,26.8,12.2,54,30.33,10.0,NNW,4.6,-,N/A,,Clear,340,2012-12-05 01:52:00
8:12 PM,26.4,12.2,55,30.34,10.0,North,4.6,-,N/A,,Clear,350,2012-12-05 02:12:00
8:32 PM,25.7,12.2,57,30.34,10.0,North,3.5,-,N/A,,Clear,350,2012-12-05 02:32:00
8:52 PM,25.9,12.2,56,30.34,10.0,North,4.6,-,N/A,,Clear,350,2012-12-05 02:52:00
9:12 PM,25.7,12.2,57,30.35,10.0,North,6.9,-,N/A,,Clear,350,2012-12-05 03:12:00
9:32 PM,25.7,12.2,57,30.36,10.0,North,5.8,-,N/A,,Clear,350,2012-12-05 03:32:00
9:52 PM,25.3,12.4,58,30.35,10.0,North,4.6,-,N/A,,Clear,10,2012-12-05 03:52:00
10:12 PM,25.5,12.9,59,30.36,10.0,North,4.6,-,N/A,,Clear,360,2012-12-05 04:12:00
10:32 PM,25.2,12.7,59,30.37,10.0,North,4.6,-,N/A,,Clear,360,2012-12-05 04:32:00
10:52 PM,25.0,12.2,58,30.38,10.0,NNE,4.6,-,N/A,,Clear,20,2012-12-05 04:52:00
11:12 PM,24.6,11.8,58,30.40,10.0,North,3.5,-,N/A,,Clear,10,2012-12-05 05:12:00
11:32 PM,24.1,11.8,60,30.40,10.0,NNE,4.6,-,N/A,,Clear,20,2012-12-05 05:32:00
11:52 PM,24.3,11.7,59,30.42,10.0,North,3.5,-,N/A,,Clear,360,2012-12-05 05:52:00